Other Public Products
Issued by NWS Grand Forks, ND

Home | Current Version | Previous Version | Graphics & Text | Print | Product List | Glossary On
Versions: 1 2 3 4 5 6 7 8 9 10 11 12 13 14 15 16 17 18 19 20 21 22 23 24 25 26 27 28 29 30 31 32 33 34 35 36 37 38 39 40 41 42 43 44 45 46 47 48 49 50
000
FPUS83 KFGF 212231
OPUFGF
PRAIRIE TO PINES WEATHER ROUNDUP
NATIONAL WEATHER SERVICE EASTERN NORTH DAKOTA/GRAND FORKS ND
500 PM CDT SUN MAY 21 2017

 **SATELLITE DATA USED TO AUGMENT SKY COVER AT AUTOMATED STATIONS**
 *****  WEATHER ACROSS EASTERN NORTH DAKOTA  *****

CITY           SKY/WX    TMP DP  RH WIND       PRES   REMARKS
GRAND FORKS    CLOUDY    53  45  74 NW16      29.89S
GRAND FORKS AF DRIZZLE   52  44  73 N13       29.89F
GRAND CITY NWS NOT AVBL
BUXTON           N/A     53  47  79 NW14        N/A
DEVILS LAKE    CLOUDY    55  38  52 N18       29.93S
FARGO          LGT RAIN  49  44  83 N13G22    29.90S
WAHPETON ARPT  CLOUDY    50  41  71 NW16      29.92F
$$

 *****  WEATHER ACROSS CENTRAL AND WESTERN NORTH DAKOTA  *****

CITY           SKY/WX    TMP DP  RH WIND       PRES   REMARKS
JAMESTOWN      FAIR      57  42  57 N13       29.91F
BISMARCK       FAIR      72  31  22 NW10      29.90F
MINOT          FAIR      69  32  25 N17G23    29.90F
MINOT AFB      NOT AVBL
GARRISON         N/A     67  30  25 N14G25    29.90S
WILLISTON      FAIR      73  33  23 N17G28    29.94S
DICKINSON      FAIR      61  36  39 NW28G38   29.97R
HETTINGER      FAIR      62  41  46 W17       30.00F
$$

 *****  OTHER OBSERVATIONS NORTHEAST NORTH DAKOTA  *****

CITY           SKY/WX    TMP DP  RH WIND       PRES   REMARKS
WALHALLA       NOT AVBL
LANGDON        MOCLDY    52  46  82 N14G20    29.91S
CAVALIER       CLOUDY    48  45  87 N15G24    29.89S
GRAFTON        DRIZZLE   48  48 100 NW13      29.90F
CANDO          NOT AVBL
FORT TOTTEN      N/A     58  41  53 N7        29.95S
ROLLA          FAIR      57  36  44 N16G24    29.93F
RUGBY          NOT AVBL
 ***** THE ABOVE OBSERVATIONS ARE NON NWS ARE NOT QUALITY
        CONTROLLED AND MAY MIS-REPORT RAIN FOR SNOW...
$$

 *****  OTHER OBSERVATIONS SOUTHEAST NORTH DAKOTA *****

CITY           SKY/WX    TMP DP  RH WIND       PRES   REMARKS
COOPERSTOWN    MOCLDY    54  43  66 N14G21    29.91F
VALLEY CITY    NOT AVBL
OAKES          NOT AVBL
GWINNER        PTCLDY    55  41  58 MISG      29.93
SHEYENNE NWR     N/A     55  44  65 N10       29.95S
BUFFALO          N/A     54  37  52 W17         N/A
WYNDMERE         N/A     50  45  81 N12         N/A
 ***** THE ABOVE OBSERVATIONS ARE NON NWS ARE NOT QUALITY
       CONTROLLED AND MAY MIS-REPORT RAIN FOR SNOW...
$$

  *****  WEATHER ACROSS NORTHERN MINNESOTA  *****

CITY           SKY/WX    TMP DP  RH WIND       PRES   REMARKS
FLAG ISLAND    CLOUDY    46  43  87 NW6       29.80F
WARROAD        CLOUDY    48  45  87 NW7       29.83S
ROSEAU         CLOUDY    48  43  81 N10       29.83F
HALLOCK        LGT RAIN  48  46  93 NW9       29.86F
THF RVR FALLS  CLOUDY    48  41  76 NW10      29.86F
HALSTAD          N/A     49  43  79 NW14        N/A
FOSSTON        CLOUDY    46  41  81 NW12      29.86F
BAUDETTE       CLOUDY    48  42  80 N8        29.81S
WASKISH        DRIZZLE   46  45  93 W8        29.81F
CROOKSTON      CLOUDY    50  45  81 NW13      29.88S
$$
  *****  WEATHER ACROSS CENTRAL AND WEST MINNESOTA  *****

CITY           SKY/WX    TMP DP  RH WIND       PRES   REMARKS
BEMIDJI        CLOUDY    44  43  95 NW10      29.83F FOG
PARK RAPIDS    LGT RAIN  46  39  76 NW15      29.84S
WADENA         CLOUDY    43  39  87 NW8G18    29.87S
DETROIT LAKES  PTSUNNY   46  41  81 NW13G22   29.89S
MOORHEAD       LGT RAIN  48  45  87 NW16      29.91S
FERGUS FALLS   CLOUDY    48  41  76 N17       29.90S
ELBOW LAKE     MOCLDY    46  42  84 W12       29.91F
MORRIS MN      FAIR      50  43  76 NW21      29.91F
STAPLES        DRIZZLE   43  41  93 NW10      29.86S
WHEATON        FAIR      52  41  66 W14       29.94F
$$
  *****  WEATHER ELSEWHERE ACROSS MINNESOTA  *****

CITY           SKY/WX    TMP DP  RH WIND       PRES   REMARKS
DULUTH         CLOUDY    47  46  97 SW8       29.76S FOG
INTRNTL FALLS  CLOUDY    48  43  82 NW7       29.78F
ELY            CLOUDY    46  45  93 W6        29.75S FOG
CLOQUET        DRIZZLE   48  45  87 CALM      29.77F
BRAINERD       LGT RAIN  46  43  89 NW10      29.84S
HIBBING        LGT RAIN  46  45  96 W8        29.77S FOG
ALEXANDRIA     CLOUDY    45  40  82 NW17      29.90S
SAINT CLOUD    CLOUDY    46  42  86 W13       29.86R
MINNEAPOLIS    CLOUDY    48  42  80 W14       29.87R
$$

  *****  WEATHER ACROSS SOUTH DAKOTA  *****

CITY           SKY/WX    TMP DP  RH WIND       PRES   REMARKS
SIOUX FALLS    PTSUNNY   58  43  57 NW22G30   30.00F
BROOKINGS      FAIR      54  41  61 NW20G29   29.96F
WATERTOWN      FAIR      55  40  56 NW23      29.95S
HURON          FAIR      66  40  38 NW9       29.95F
SISSETON         N/A     53  41  63 N22G29    29.92F
ABERDEEN       FAIR      61  38  42 VRB5      29.94F
MITCHELL       FAIR      64  42  44 VRB7      29.99F
PIERRE         FAIR      70  34  26 NW12G17   29.96F
MOBRIDGE       FAIR      72  28  19 NW16G25   29.89F
RAPID CITY     LGT RAIN  53  44  71 W14       30.09R
$$

  *****  SOME WEATHER IN NEARBY STATES *****

CITY           SKY/WX    TMP DP  RH WIND       PRES   REMARKS
GLASGOW MT     FAIR      70  35  27 MISG      30.05F
GREAT FALLS MT FAIR      70  31  23 NW13      30.17F
CHEYENNE WY    CLOUDY    49  36  61 W17G26    30.22R
SCOTTSBLUFF NE CLOUDY    55  32  41 W9        30.14F
OMAHA NE       FAIR      65  41  41 NW14G28   30.05S
DES MOINES IA  CLOUDY    58  42  55 W17G24    30.04S
DAVENPORT IA   CLOUDY    52  41  66 W16       30.02F
CHICAGO IL     CLOUDY    56  45  66 W14G23    29.97R
EAU CLAIRE WI  CLOUDY    48  46  93 SW17G23   29.82S FOG
LA CROSSE WI   CLOUDY    52  42  69 SW16G22   29.89S
$$

  *****  SOME NATIONAL WEATHER *****

CITY           SKY/WX    TMP DP  RH WIND       PRES   REMARKS
LA GUARDIA NY  FAIR      65  33  30 S14       30.29S
RALEIGH NC     PTSUNNY   74  65  73 E9        30.14F
ATLANTA GA     FAIR      80  66  62 W6        30.04F
NEW ORLEANS LA PTSUNNY   75  71  87 SE9       30.02S
OKLAHOMA CITY  PTSUNNY   75  45  34 E7        30.13F
ALBUQUERQUE NM FAIR      79  17  10 NW9       30.06F
SALT LAKE CITY PTSUNNY   66  46  48 N7        30.18F
LOS ANGELES CA FAIR      73  58  59 SW13      29.91F
BOISE ID       FAIR      73  47  39 SW7       30.18F
SEATTLE WA     PTSUNNY   75  51  43 N13       30.21F
$$

*** WEATHER ACROSS MANITOBA...SASKATCHEWAN AND ONTARIO ***
                ***ONTARIO***

CITY           SKY/WX    TMP DP  RH WIND       PRES   REMARKS
GERALDTON      DRIZZLE   46  45  93 E16       29.81F FOG
THUNDER BAY    LGT RAIN  45  43  93 E10       29.75F FOG
SIOUX LOOKOUT  LGT RAIN  45  45 100 VRB3      29.81F
TORONTO        LGT RAIN  54  52  94 E6        29.97F
BIG TROUT LK   MOSUNNY   57  30  35 E10G20    30.01F
PICKLE LAKE    LGT RAIN  45  39  81 E15G22    29.89R
DRYDEN         LGT RAIN  45  43  93 NE9G18    29.80S
KENORA         CLOUDY    46  43  87 NE7       29.81S
$$
                *** MANITOBA***

CITY           SKY/WX    TMP DP  RH WIND       PRES   REMARKS
BRANDON        PTSUNNY   61  36  39 NE21      29.93F
DAUPHIN        MOSUNNY   59  34  38 NE15G23   29.96F
ISLAND LAKE    CLOUDY    61  32  33 NE10G22   29.96S
PILOT MOUND      N/A     55  37  50 N15G21      N/A
THE PAS        PTSUNNY   64  28  25 N7        29.96F
THOMPSON       CLOUDY    68  34  28 VRB2      30.02F
WINNIPEG       LGT RAIN  50  45  81 N17       29.89S
LYNN LAKE      SUNNY     70  30  23 E15G21    30.03F
CHURCHILL      PTSUNNY   39  34  81 NE9       30.19R
GILLAM         CLOUDY    61  36  39 NE12      30.04F
$$
                ***SASKATCHEWAN***

CITY           SKY/WX    TMP DP  RH WIND       PRES   REMARKS
ESTEVAN        MOSUNNY   72  28  20 N7G25     29.91F
KINDERSLEY     MOSUNNY   68  34  28 N29G39    30.03F
LLOYDMINSTER   PTSUNNY   66  37  34 N6        30.07R
PRINCE ALBERT  TSTM      59  46  63 NE10      30.02R
REGINA         PTSUNNY   66  37  34 NE18      29.97S
YORKTON        MOSUNNY   68  28  22 N9        29.90F



USA.gov is the U.S. government's official web portal to all federal, state and local government web resources and services.